owner,sensor,date,latitude,longitude,vertical_datum,sea_water_practical_salinity,qcFlag 
ENP,ioos.station.NOAA.NDBC:LMDF1:1,2016-05-01T00:00:00Z,25.1760,-80.6330,1.5,20.81,1111122 
ENP,ioos.station.NOAA.NDBC:LMDF1:1,2016-05-01T01:00:00Z,25.1760,-80.6330,1.5,20.95,1111122 
ENP,ioos.station.NOAA.NDBC:LMDF1:1,2016-05-01T04:00:00Z,25.1760,-80.6330,1.5,20.9,1111122 
ENP,ioos.station.NOAA.NDBC:LMDF1:1,2016-05-01T05:00:00Z,25.1760,-80.6330,1.5,19.49,1111122 
ENP,ioos.station.NOAA.NDBC:LMDF1:1,2016-05-01T08:00:00Z,25.1760,-80.6330,1.5,19.91,1111122 
ENP,ioos.station.NOAA.NDBC:LMDF1:1,2016-05-01T09:00:00Z,25.1760,-80.6330,1.5,20.26,1111122 
ENP,ioos.station.NOAA.NDBC:LMDF1:1,2016-05-01T11:00:00Z,25.1760,-80.6330,1.5,20.13,1111122 
ENP,ioos.station.NOAA.NDBC:LMDF1:1,2016-05-01T12:00:00Z,25.1760,-80.6330,1.5,20.28,1111122 
ENP,ioos.station.NOAA.NDBC:LMDF1:1,2016-05-01T13:00:00Z,25.1760,-80.6330,1.5,19.88,1111122 
ENP,ioos.station.NOAA.NDBC:LMDF1:1,2016-05-01T14:00:00Z,25.1760,-80.6330,1.5,20.61,1111122 
ENP,ioos.station.NOAA.NDBC:LMDF1:1,2016-05-01T15:00:00Z,25.1760,-80.6330,1.5,21.19,1111122 
ENP,ioos.station.NOAA.NDBC:LMDF1:1,2016-05-01T16:00:00Z,25.1760,-80.6330,1.5,20.93,1111122 
ENP,ioos.station.NOAA.NDBC:LMDF1:1,2016-05-01T17:00:00Z,25.1760,-80.6330,1.5,17.21,1111122 
ENP,ioos.station.NOAA.NDBC:LMDF1:1,2016-05-01T18:00:00Z,25.1760,-80.6330,1.5,19.9,1111122 
ENP,ioos.station.NOAA.NDBC:LMDF1:1,2016-05-01T19:00:00Z,25.1760,-80.6330,1.5,20.53,1111122 
ENP,ioos.station.NOAA.NDBC:LMDF1:1,2016-05-01T20:00:00Z,25.1760,-80.6330,1.5,20.51,1111122 
ENP,ioos.station.NOAA.NDBC:LMDF1:1,2016-05-01T21:00:00Z,25.1760,-80.6330,1.5,19.83,1111122 
ENP,ioos.station.NOAA.NDBC:LMDF1:1,2016-05-01T22:00:00Z,25.1760,-80.6330,1.5,20.35,1111122 
ENP,ioos.station.NOAA.NDBC:LMDF1:1,2016-05-01T23:00:00Z,25.1760,-80.6330,1.5,20.66,1111122 
ENP,ioos.station.NOAA.NDBC:LMDF1:1,2016-05-02T00:00:00Z,25.1760,-80.6330,1.5,20.9,1111122 
ENP,ioos.station.NOAA.NDBC:LMDF1:1,2016-05-02T01:00:00Z,25.1760,-80.6330,1.5,21.01,1111122 
ENP,ioos.station.NOAA.NDBC:LMDF1:1,2016-05-02T02:00:00Z,25.1760,-80.6330,1.5,21.1,1111122 
ENP,ioos.station.NOAA.NDBC:LMDF1:1,2016-05-02T04:00:00Z,25.1760,-80.6330,1.5,20.72,1111122 
ENP,ioos.station.NOAA.NDBC:LMDF1:1,2016-05-02T05:00:00Z,25.1760,-80.6330,1.5,20.47,1111122 
ENP,ioos.station.NOAA.NDBC:LMDF1:1,2016-05-02T07:00:00Z,25.1760,-80.6330,1.5,21.14,1111122 
ENP,ioos.station.NOAA.NDBC:LMDF1:1,2016-05-02T08:00:00Z,25.1760,-80.6330,1.5,21.25,1111122 
ENP,ioos.station.NOAA.NDBC:LMDF1:1,2016-05-02T09:00:00Z,25.1760,-80.6330,1.5,21.59,1111122 
ENP,ioos.station.NOAA.NDBC:LMDF1:1,2016-05-02T10:00:00Z,25.1760,-80.6330,1.5,21.37,1111122 
ENP,ioos.station.NOAA.NDBC:LMDF1:1,2016-05-02T11:00:00Z,25.1760,-80.6330,1.5,21.14,1111122 
ENP,ioos.station.NOAA.NDBC:LMDF1:1,2016-05-02T12:00:00Z,25.1760,-80.6330,1.5,21.09,1111122 
ENP,ioos.station.NOAA.NDBC:LMDF1:1,2016-05-02T13:00:00Z,25.1760,-80.6330,1.5,21.14,1111122 
ENP,ioos.station.NOAA.NDBC:LMDF1:1,2016-05-02T15:00:00Z,25.1760,-80.6330,1.5,21.19,1111122 
ENP,ioos.station.NOAA.NDBC:LMDF1:1,2016-05-02T16:00:00Z,25.1760,-80.6330,1.5,21.39,1111122 
ENP,ioos.station.NOAA.NDBC:LMDF1:1,2016-05-02T17:00:00Z,25.1760,-80.6330,1.5,21.35,1111122 
ENP,ioos.station.NOAA.NDBC:LMDF1:1,2016-05-02T18:00:00Z,25.1760,-80.6330,1.5,20.81,1111122 
ENP,ioos.station.NOAA.NDBC:LMDF1:1,2016-05-02T19:00:00Z,25.1760,-80.6330,1.5,20.54,1111122 
ENP,ioos.station.NOAA.NDBC:LMDF1:1,2016-05-02T20:00:00Z,25.1760,-80.6330,1.5,19.58,1111122 
ENP,ioos.station.NOAA.NDBC:LMDF1:1,2016-05-02T21:00:00Z,25.1760,-80.6330,1.5,20.17,1111122 
ENP,ioos.station.NOAA.NDBC:LMDF1:1,2016-05-02T22:00:00Z,25.1760,-80.6330,1.5,20.87,1111122 
ENP,ioos.station.NOAA.NDBC:LMDF1:1,2016-05-02T23:00:00Z,25.1760,-80.6330,1.5,19.99,1111122 
ENP,ioos.station.NOAA.NDBC:LMDF1:1,2016-05-03T00:00:00Z,25.1760,-80.6330,1.5,20.76,1111122 
ENP,ioos.station.NOAA.NDBC:LMDF1:1,2016-05-03T01:00:00Z,25.1760,-80.6330,1.5,21.11,1111122 
ENP,ioos.station.NOAA.NDBC:LMDF1:1,2016-05-03T02:00:00Z,25.1760,-80.6330,1.5,21.39,1111122 
ENP,ioos.station.NOAA.NDBC:LMDF1:1,2016-05-03T04:00:00Z,25.1760,-80.6330,1.5,21.29,1111122 
ENP,ioos.station.NOAA.NDBC:LMDF1:1,2016-05-03T05:00:00Z,25.1760,-80.6330,1.5,21.48,1111122 
ENP,ioos.station.NOAA.NDBC:LMDF1:1,2016-05-03T07:00:00Z,25.1760,-80.6330,1.5,20.96,1111122 
ENP,ioos.station.NOAA.NDBC:LMDF1:1,2016-05-03T08:00:00Z,25.1760,-80.6330,1.5,20.88,1111122 
ENP,ioos.station.NOAA.NDBC:LMDF1:1,2016-05-03T09:00:00Z,25.1760,-80.6330,1.5,21.41,1111122 
ENP,ioos.station.NOAA.NDBC:LMDF1:1,2016-05-03T10:00:00Z,25.1760,-80.6330,1.5,21.21,1111122 
ENP,ioos.station.NOAA.NDBC:LMDF1:1,2016-05-03T11:00:00Z,25.1760,-80.6330,1.5,21.95,1111122 
ENP,ioos.station.NOAA.NDBC:LMDF1:1,2016-05-03T12:00:00Z,25.1760,-80.6330,1.5,22.09,1111122 
ENP,ioos.station.NOAA.NDBC:LMDF1:1,2016-05-03T13:00:00Z,25.1760,-80.6330,1.5,22.16,1111122 
ENP,ioos.station.NOAA.NDBC:LMDF1:1,2016-05-03T14:00:00Z,25.1760,-80.6330,1.5,22.02,1111122 
ENP,ioos.station.NOAA.NDBC:LMDF1:1,2016-05-03T15:00:00Z,25.1760,-80.6330,1.5,21.98,1111122 
ENP,ioos.station.NOAA.NDBC:LMDF1:1,2016-05-03T16:00:00Z,25.1760,-80.6330,1.5,21.99,1111122 
ENP,ioos.station.NOAA.NDBC:LMDF1:1,2016-05-03T17:00:00Z,25.1760,-80.6330,1.5,21.77,1111122 
ENP,ioos.station.NOAA.NDBC:LMDF1:1,2016-05-03T18:00:00Z,25.1760,-80.6330,1.5,21.14,1111122 
ENP,ioos.station.NOAA.NDBC:LMDF1:1,2016-05-03T19:00:00Z,25.1760,-80.6330,1.5,20.52,1111122 
ENP,ioos.station.NOAA.NDBC:LMDF1:1,2016-05-03T21:00:00Z,25.1760,-80.6330,1.5,19.67,1111122 
ENP,ioos.station.NOAA.NDBC:LMDF1:1,2016-05-03T22:00:00Z,25.1760,-80.6330,1.5,19.44,1111122 
ENP,ioos.station.NOAA.NDBC:LMDF1:1,2016-05-03T23:00:00Z,25.1760,-80.6330,1.5,19.8,1111122 
ENP,ioos.station.NOAA.NDBC:LMDF1:1,2016-05-04T00:00:00Z,25.1760,-80.6330,1.5,19.8,1111122 
ENP,ioos.station.NOAA.NDBC:LMDF1:1,2016-05-04T01:00:00Z,25.1760,-80.6330,1.5,19.92,1111122 
ENP,ioos.station.NOAA.NDBC:LMDF1:1,2016-05-04T02:00:00Z,25.1760,-80.6330,1.5,19.98,1111122 
ENP,ioos.station.NOAA.NDBC:LMDF1:1,2016-05-04T04:00:00Z,25.1760,-80.6330,1.5,20.1,1111122 
ENP,ioos.station.NOAA.NDBC:LMDF1:1,2016-05-04T05:00:00Z,25.1760,-80.6330,1.5,20.19,1111122 
ENP,ioos.station.NOAA.NDBC:LMDF1:1,2016-05-04T07:00:00Z,25.1760,-80.6330,1.5,20.54,1111122 
ENP,ioos.station.NOAA.NDBC:LMDF1:1,2016-05-04T08:00:00Z,25.1760,-80.6330,1.5,20.96,1111122 
ENP,ioos.station.NOAA.NDBC:LMDF1:1,2016-05-04T09:00:00Z,25.1760,-80.6330,1.5,20.56,1111122 
ENP,ioos.station.NOAA.NDBC:LMDF1:1,2016-05-04T10:00:00Z,25.1760,-80.6330,1.5,20.59,1111122 
ENP,ioos.station.NOAA.NDBC:LMDF1:1,2016-05-04T11:00:00Z,25.1760,-80.6330,1.5,20.45,1111122 
ENP,ioos.station.NOAA.NDBC:LMDF1:1,2016-05-04T12:00:00Z,25.1760,-80.6330,1.5,20.61,1111122 
ENP,ioos.station.NOAA.NDBC:LMDF1:1,2016-05-04T13:00:00Z,25.1760,-80.6330,1.5,20.59,1111122 
ENP,ioos.station.NOAA.NDBC:LMDF1:1,2016-05-04T14:00:00Z,25.1760,-80.6330,1.5,20.54,1111122 
ENP,ioos.station.NOAA.NDBC:LMDF1:1,2016-05-04T15:00:00Z,25.1760,-80.6330,1.5,20.63,1111122 
ENP,ioos.station.NOAA.NDBC:LMDF1:1,2016-05-04T16:00:00Z,25.1760,-80.6330,1.5,20.67,1111122 
ENP,ioos.station.NOAA.NDBC:LMDF1:1,2016-05-04T17:00:00Z,25.1760,-80.6330,1.5,20.58,1111122 
ENP,ioos.station.NOAA.NDBC:LMDF1:1,2016-05-04T18:00:00Z,25.1760,-80.6330,1.5,20.39,1111122 
ENP,ioos.station.NOAA.NDBC:LMDF1:1,2016-05-04T19:00:00Z,25.1760,-80.6330,1.5,20.02,1111122 
ENP,ioos.station.NOAA.NDBC:LMDF1:1,2016-05-04T20:00:00Z,25.1760,-80.6330,1.5,20.53,1111122 
ENP,ioos.station.NOAA.NDBC:LMDF1:1,2016-05-04T21:00:00Z,25.1760,-80.6330,1.5,20.59,1111122 
ENP,ioos.station.NOAA.NDBC:LMDF1:1,2016-05-04T22:00:00Z,25.1760,-80.6330,1.5,20.47,1111122 
ENP,ioos.station.NOAA.NDBC:LMDF1:1,2016-05-04T23:00:00Z,25.1760,-80.6330,1.5,20.55,1111122 
ENP,ioos.station.NOAA.NDBC:LMDF1:1,2016-05-05T00:00:00Z,25.1760,-80.6330,1.5,20.33,1111122 
ENP,ioos.station.NOAA.NDBC:LMDF1:1,2016-05-05T01:00:00Z,25.1760,-80.6330,1.5,20.28,1111122 
ENP,ioos.station.NOAA.NDBC:LMDF1:1,2016-05-05T04:00:00Z,25.1760,-80.6330,1.5,21.13,1111122 
ENP,ioos.station.NOAA.NDBC:LMDF1:1,2016-05-05T07:00:00Z,25.1760,-80.6330,1.5,20.83,1111122 
ENP,ioos.station.NOAA.NDBC:LMDF1:1,2016-05-05T08:00:00Z,25.1760,-80.6330,1.5,20.86,1111122 
ENP,ioos.station.NOAA.NDBC:LMDF1:1,2016-05-05T09:00:00Z,25.1760,-80.6330,1.5,20.7,1111122 
ENP,ioos.station.NOAA.NDBC:LMDF1:1,2016-05-05T11:00:00Z,25.1760,-80.6330,1.5,21.16,1111122 
ENP,ioos.station.NOAA.NDBC:LMDF1:1,2016-05-05T12:00:00Z,25.1760,-80.6330,1.5,20.56,1111122 
ENP,ioos.station.NOAA.NDBC:LMDF1:1,2016-05-05T13:00:00Z,25.1760,-80.6330,1.5,20.68,1111122 
ENP,ioos.station.NOAA.NDBC:LMDF1:1,2016-05-05T14:00:00Z,25.1760,-80.6330,1.5,21.25,1111122 
ENP,ioos.station.NOAA.NDBC:LMDF1:1,2016-05-05T15:00:00Z,25.1760,-80.6330,1.5,21.23,1111122 
ENP,ioos.station.NOAA.NDBC:LMDF1:1,2016-05-05T16:00:00Z,25.1760,-80.6330,1.5,21.24,1111122 
ENP,ioos.station.NOAA.NDBC:LMDF1:1,2016-05-05T17:00:00Z,25.1760,-80.6330,1.5,20.96,1111122 
ENP,ioos.station.NOAA.NDBC:LMDF1:1,2016-05-05T18:00:00Z,25.1760,-80.6330,1.5,21.16,1111122 
ENP,ioos.station.NOAA.NDBC:LMDF1:1,2016-05-05T19:00:00Z,25.1760,-80.6330,1.5,21.21,1111122 
ENP,ioos.station.NOAA.NDBC:LMDF1:1,2016-05-05T20:00:00Z,25.1760,-80.6330,1.5,21.27,1111122 
ENP,ioos.station.NOAA.NDBC:LMDF1:1,2016-05-05T21:00:00Z,25.1760,-80.6330,1.5,21.42,1111122 
ENP,ioos.station.NOAA.NDBC:LMDF1:1,2016-05-05T22:00:00Z,25.1760,-80.6330,1.5,21.32,1111122 
ENP,ioos.station.NOAA.NDBC:LMDF1:1,2016-05-05T23:00:00Z,25.1760,-80.6330,1.5,20.81,1111122 
ENP,ioos.station.NOAA.NDBC:LMDF1:1,2016-05-06T00:00:00Z,25.1760,-80.6330,1.5,19.88,1111122 
ENP,ioos.station.NOAA.NDBC:LMDF1:1,2016-05-06T01:00:00Z,25.1760,-80.6330,1.5,19.21,1111122 
ENP,ioos.station.NOAA.NDBC:LMDF1:1,2016-05-06T04:00:00Z,25.1760,-80.6330,1.5,22.13,1111122 
ENP,ioos.station.NOAA.NDBC:LMDF1:1,2016-05-06T05:00:00Z,25.1760,-80.6330,1.5,22.58,1111122 
ENP,ioos.station.NOAA.NDBC:LMDF1:1,2016-05-06T07:00:00Z,25.1760,-80.6330,1.5,21.46,1111122 
ENP,ioos.station.NOAA.NDBC:LMDF1:1,2016-05-06T08:00:00Z,25.1760,-80.6330,1.5,21.33,1111122 
ENP,ioos.station.NOAA.NDBC:LMDF1:1,2016-05-06T09:00:00Z,25.1760,-80.6330,1.5,21.83,1111122 
ENP,ioos.station.NOAA.NDBC:LMDF1:1,2016-05-06T11:00:00Z,25.1760,-80.6330,1.5,19.96,1111122 
ENP,ioos.station.NOAA.NDBC:LMDF1:1,2016-05-06T12:00:00Z,25.1760,-80.6330,1.5,21.57,1111122 
ENP,ioos.station.NOAA.NDBC:LMDF1:1,2016-05-06T13:00:00Z,25.1760,-80.6330,1.5,21.82,1111122 
ENP,ioos.station.NOAA.NDBC:LMDF1:1,2016-05-06T14:00:00Z,25.1760,-80.6330,1.5,21.52,1111122 
ENP,ioos.station.NOAA.NDBC:LMDF1:1,2016-05-06T15:00:00Z,25.1760,-80.6330,1.5,23.55,1111122 
ENP,ioos.station.NOAA.NDBC:LMDF1:1,2016-05-06T16:00:00Z,25.1760,-80.6330,1.5,24.62,1111122 
ENP,ioos.station.NOAA.NDBC:LMDF1:1,2016-05-06T17:00:00Z,25.1760,-80.6330,1.5,25.17,1111122 
ENP,ioos.station.NOAA.NDBC:LMDF1:1,2016-05-06T18:00:00Z,25.1760,-80.6330,1.5,24.7,1111122 
ENP,ioos.station.NOAA.NDBC:LMDF1:1,2016-05-06T19:00:00Z,25.1760,-80.6330,1.5,24.63,1111122 
ENP,ioos.station.NOAA.NDBC:LMDF1:1,2016-05-06T20:00:00Z,25.1760,-80.6330,1.5,22.04,1111122 
ENP,ioos.station.NOAA.NDBC:LMDF1:1,2016-05-06T21:00:00Z,25.1760,-80.6330,1.5,23.62,1111122 
ENP,ioos.station.NOAA.NDBC:LMDF1:1,2016-05-06T22:00:00Z,25.1760,-80.6330,1.5,24.49,1111122 
ENP,ioos.station.NOAA.NDBC:LMDF1:1,2016-05-06T23:00:00Z,25.1760,-80.6330,1.5,21.21,1111122 
ENP,ioos.station.NOAA.NDBC:LMDF1:1,2016-05-07T00:00:00Z,25.1760,-80.6330,1.5,19.6,1111122 
ENP,ioos.station.NOAA.NDBC:LMDF1:1,2016-05-07T01:00:00Z,25.1760,-80.6330,1.5,23.55,1111122 
ENP,ioos.station.NOAA.NDBC:LMDF1:1,2016-05-07T04:00:00Z,25.1760,-80.6330,1.5,23.45,1111122 
ENP,ioos.station.NOAA.NDBC:LMDF1:1,2016-05-07T05:00:00Z,25.1760,-80.6330,1.5,24.29,1111122 
ENP,ioos.station.NOAA.NDBC:LMDF1:1,2016-05-07T07:00:00Z,25.1760,-80.6330,1.5,22.13,1111122 
ENP,ioos.station.NOAA.NDBC:LMDF1:1,2016-05-07T08:00:00Z,25.1760,-80.6330,1.5,24.78,1111122 
ENP,ioos.station.NOAA.NDBC:LMDF1:1,2016-05-07T09:00:00Z,25.1760,-80.6330,1.5,25.23,1111122 
ENP,ioos.station.NOAA.NDBC:LMDF1:1,2016-05-07T10:00:00Z,25.1760,-80.6330,1.5,25.31,1111122 
ENP,ioos.station.NOAA.NDBC:LMDF1:1,2016-05-07T11:00:00Z,25.1760,-80.6330,1.5,25.4,1111122 
ENP,ioos.station.NOAA.NDBC:LMDF1:1,2016-05-07T12:00:00Z,25.1760,-80.6330,1.5,25.43,1111122 
ENP,ioos.station.NOAA.NDBC:LMDF1:1,2016-05-07T13:00:00Z,25.1760,-80.6330,1.5,25.5,1111122 
ENP,ioos.station.NOAA.NDBC:LMDF1:1,2016-05-07T14:00:00Z,25.1760,-80.6330,1.5,25.66,1111122 
ENP,ioos.station.NOAA.NDBC:LMDF1:1,2016-05-07T15:00:00Z,25.1760,-80.6330,1.5,25.75,1111122 
ENP,ioos.station.NOAA.NDBC:LMDF1:1,2016-05-07T16:00:00Z,25.1760,-80.6330,1.5,25.87,1111122 
ENP,ioos.station.NOAA.NDBC:LMDF1:1,2016-05-07T17:00:00Z,25.1760,-80.6330,1.5,25.81,1111122 
ENP,ioos.station.NOAA.NDBC:LMDF1:1,2016-05-07T18:00:00Z,25.1760,-80.6330,1.5,25.75,1111122 
ENP,ioos.station.NOAA.NDBC:LMDF1:1,2016-05-07T19:00:00Z,25.1760,-80.6330,1.5,25.73,1111122 
ENP,ioos.station.NOAA.NDBC:LMDF1:1,2016-05-07T20:00:00Z,25.1760,-80.6330,1.5,24.73,1111122 
ENP,ioos.station.NOAA.NDBC:LMDF1:1,2016-05-07T21:00:00Z,25.1760,-80.6330,1.5,23.65,1111122 
ENP,ioos.station.NOAA.NDBC:LMDF1:1,2016-05-07T22:00:00Z,25.1760,-80.6330,1.5,24.63,1111122 
ENP,ioos.station.NOAA.NDBC:LMDF1:1,2016-05-07T23:00:00Z,25.1760,-80.6330,1.5,25.97,1111122 
ENP,ioos.station.NOAA.NDBC:LMDF1:1,2016-05-08T00:00:00Z,25.1760,-80.6330,1.5,25.94,1111122 
ENP,ioos.station.NOAA.NDBC:LMDF1:1,2016-05-08T01:00:00Z,25.1760,-80.6330,1.5,22.63,1111122 
ENP,ioos.station.NOAA.NDBC:LMDF1:1,2016-05-08T04:00:00Z,25.1760,-80.6330,1.5,24.29,1111122 
ENP,ioos.station.NOAA.NDBC:LMDF1:1,2016-05-08T07:00:00Z,25.1760,-80.6330,1.5,25.06,1111122 
ENP,ioos.station.NOAA.NDBC:LMDF1:1,2016-05-08T08:00:00Z,25.1760,-80.6330,1.5,22.88,1111122 
ENP,ioos.station.NOAA.NDBC:LMDF1:1,2016-05-08T09:00:00Z,25.1760,-80.6330,1.5,22.84,1111122 
ENP,ioos.station.NOAA.NDBC:LMDF1:1,2016-05-08T11:00:00Z,25.1760,-80.6330,1.5,24.29,1111122 
ENP,ioos.station.NOAA.NDBC:LMDF1:1,2016-05-08T12:00:00Z,25.1760,-80.6330,1.5,25.09,1111122 
ENP,ioos.station.NOAA.NDBC:LMDF1:1,2016-05-08T13:00:00Z,25.1760,-80.6330,1.5,25.87,1111122 
ENP,ioos.station.NOAA.NDBC:LMDF1:1,2016-05-08T14:00:00Z,25.1760,-80.6330,1.5,25.8,1111122 
ENP,ioos.station.NOAA.NDBC:LMDF1:1,2016-05-08T15:00:00Z,25.1760,-80.6330,1.5,25.94,1111122 
ENP,ioos.station.NOAA.NDBC:LMDF1:1,2016-05-08T16:00:00Z,25.1760,-80.6330,1.5,26.02,1111122 
ENP,ioos.station.NOAA.NDBC:LMDF1:1,2016-05-08T17:00:00Z,25.1760,-80.6330,1.5,25.95,1111122 
ENP,ioos.station.NOAA.NDBC:LMDF1:1,2016-05-08T18:00:00Z,25.1760,-80.6330,1.5,24.99,1111122 
ENP,ioos.station.NOAA.NDBC:LMDF1:1,2016-05-08T19:00:00Z,25.1760,-80.6330,1.5,25.83,1111122 
ENP,ioos.station.NOAA.NDBC:LMDF1:1,2016-05-08T20:00:00Z,25.1760,-80.6330,1.5,23.99,1111122 
ENP,ioos.station.NOAA.NDBC:LMDF1:1,2016-05-08T21:00:00Z,25.1760,-80.6330,1.5,24.04,1111122 
ENP,ioos.station.NOAA.NDBC:LMDF1:1,2016-05-08T22:00:00Z,25.1760,-80.6330,1.5,23.97,1111122 
ENP,ioos.station.NOAA.NDBC:LMDF1:1,2016-05-08T23:00:00Z,25.1760,-80.6330,1.5,23.56,1111122 
ENP,ioos.station.NOAA.NDBC:LMDF1:1,2016-05-09T00:00:00Z,25.1760,-80.6330,1.5,23.06,1111122 
ENP,ioos.station.NOAA.NDBC:LMDF1:1,2016-05-09T01:00:00Z,25.1760,-80.6330,1.5,22.81,1111122 
ENP,ioos.station.NOAA.NDBC:LMDF1:1,2016-05-09T04:00:00Z,25.1760,-80.6330,1.5,22.02,1111122 
ENP,ioos.station.NOAA.NDBC:LMDF1:1,2016-05-09T05:00:00Z,25.1760,-80.6330,1.5,23.15,1111122 
ENP,ioos.station.NOAA.NDBC:LMDF1:1,2016-05-09T08:00:00Z,25.1760,-80.6330,1.5,22.87,1111122 
ENP,ioos.station.NOAA.NDBC:LMDF1:1,2016-05-09T09:00:00Z,25.1760,-80.6330,1.5,23.48,1111122 
ENP,ioos.station.NOAA.NDBC:LMDF1:1,2016-05-09T10:00:00Z,25.1760,-80.6330,1.5,22.82,1111122 
ENP,ioos.station.NOAA.NDBC:LMDF1:1,2016-05-09T11:00:00Z,25.1760,-80.6330,1.5,22.77,1111122 
ENP,ioos.station.NOAA.NDBC:LMDF1:1,2016-05-09T12:00:00Z,25.1760,-80.6330,1.5,22.26,1111122 
ENP,ioos.station.NOAA.NDBC:LMDF1:1,2016-05-09T13:00:00Z,25.1760,-80.6330,1.5,21.12,1111122 
ENP,ioos.station.NOAA.NDBC:LMDF1:1,2016-05-09T14:00:00Z,25.1760,-80.6330,1.5,22.49,1111122 
ENP,ioos.station.NOAA.NDBC:LMDF1:1,2016-05-09T15:00:00Z,25.1760,-80.6330,1.5,22.13,1111122 
ENP,ioos.station.NOAA.NDBC:LMDF1:1,2016-05-09T16:00:00Z,25.1760,-80.6330,1.5,21.4,1111122 
ENP,ioos.station.NOAA.NDBC:LMDF1:1,2016-05-09T17:00:00Z,25.1760,-80.6330,1.5,21.26,1111122 
ENP,ioos.station.NOAA.NDBC:LMDF1:1,2016-05-09T18:00:00Z,25.1760,-80.6330,1.5,22.16,1111122 
ENP,ioos.station.NOAA.NDBC:LMDF1:1,2016-05-09T19:00:00Z,25.1760,-80.6330,1.5,22.61,1111122 
ENP,ioos.station.NOAA.NDBC:LMDF1:1,2016-05-09T20:00:00Z,25.1760,-80.6330,1.5,22.96,1111122 
ENP,ioos.station.NOAA.NDBC:LMDF1:1,2016-05-09T21:00:00Z,25.1760,-80.6330,1.5,22.28,1111122 
ENP,ioos.station.NOAA.NDBC:LMDF1:1,2016-05-09T22:00:00Z,25.1760,-80.6330,1.5,23.24,1111122 
ENP,ioos.station.NOAA.NDBC:LMDF1:1,2016-05-09T23:00:00Z,25.1760,-80.6330,1.5,22.82,1111122 
ENP,ioos.station.NOAA.NDBC:LMDF1:1,2016-05-10T00:00:00Z,25.1760,-80.6330,1.5,22.74,1111122 
ENP,ioos.station.NOAA.NDBC:LMDF1:1,2016-05-10T01:00:00Z,25.1760,-80.6330,1.5,21.72,1111122 
ENP,ioos.station.NOAA.NDBC:LMDF1:1,2016-05-10T04:00:00Z,25.1760,-80.6330,1.5,21.3,1111122 
ENP,ioos.station.NOAA.NDBC:LMDF1:1,2016-05-10T07:00:00Z,25.1760,-80.6330,1.5,21.86,1111122 
ENP,ioos.station.NOAA.NDBC:LMDF1:1,2016-05-10T08:00:00Z,25.1760,-80.6330,1.5,22.63,1111122 
ENP,ioos.station.NOAA.NDBC:LMDF1:1,2016-05-10T09:00:00Z,25.1760,-80.6330,1.5,22.48,1111122 
ENP,ioos.station.NOAA.NDBC:LMDF1:1,2016-05-10T11:00:00Z,25.1760,-80.6330,1.5,21.76,1111122 
ENP,ioos.station.NOAA.NDBC:LMDF1:1,2016-05-10T12:00:00Z,25.1760,-80.6330,1.5,21.01,1111122 
ENP,ioos.station.NOAA.NDBC:LMDF1:1,2016-05-10T13:00:00Z,25.1760,-80.6330,1.5,20.79,1111122 
ENP,ioos.station.NOAA.NDBC:LMDF1:1,2016-05-10T14:00:00Z,25.1760,-80.6330,1.5,20.7,1111122 
ENP,ioos.station.NOAA.NDBC:LMDF1:1,2016-05-10T15:00:00Z,25.1760,-80.6330,1.5,19.11,1111122 
ENP,ioos.station.NOAA.NDBC:LMDF1:1,2016-05-10T16:00:00Z,25.1760,-80.6330,1.5,18.62,1111122 
ENP,ioos.station.NOAA.NDBC:LMDF1:1,2016-05-10T17:00:00Z,25.1760,-80.6330,1.5,21.07,1111122 
ENP,ioos.station.NOAA.NDBC:LMDF1:1,2016-05-10T18:00:00Z,25.1760,-80.6330,1.5,21.23,1111122 
ENP,ioos.station.NOAA.NDBC:LMDF1:1,2016-05-10T19:00:00Z,25.1760,-80.6330,1.5,21.03,1111122 
ENP,ioos.station.NOAA.NDBC:LMDF1:1,2016-05-10T20:00:00Z,25.1760,-80.6330,1.5,21.7,1111122 
ENP,ioos.station.NOAA.NDBC:LMDF1:1,2016-05-10T21:00:00Z,25.1760,-80.6330,1.5,22.14,1111122 
ENP,ioos.station.NOAA.NDBC:LMDF1:1,2016-05-10T22:00:00Z,25.1760,-80.6330,1.5,22.3,1111122 
ENP,ioos.station.NOAA.NDBC:LMDF1:1,2016-05-10T23:00:00Z,25.1760,-80.6330,1.5,22.14,1111122 
ENP,ioos.station.NOAA.NDBC:LMDF1:1,2016-05-11T00:00:00Z,25.1760,-80.6330,1.5,21.87,1111122 
ENP,ioos.station.NOAA.NDBC:LMDF1:1,2016-05-11T01:00:00Z,25.1760,-80.6330,1.5,21.62,1111122 
ENP,ioos.station.NOAA.NDBC:LMDF1:1,2016-05-11T04:00:00Z,25.1760,-80.6330,1.5,21.26,1111122 
ENP,ioos.station.NOAA.NDBC:LMDF1:1,2016-05-11T05:00:00Z,25.1760,-80.6330,1.5,20.99,1111122 
ENP,ioos.station.NOAA.NDBC:LMDF1:1,2016-05-11T07:00:00Z,25.1760,-80.6330,1.5,20.52,1111122 
ENP,ioos.station.NOAA.NDBC:LMDF1:1,2016-05-11T08:00:00Z,25.1760,-80.6330,1.5,22.05,1111122 
ENP,ioos.station.NOAA.NDBC:LMDF1:1,2016-05-11T09:00:00Z,25.1760,-80.6330,1.5,20.98,1111122 
ENP,ioos.station.NOAA.NDBC:LMDF1:1,2016-05-11T10:00:00Z,25.1760,-80.6330,1.5,19.81,1111122 
ENP,ioos.station.NOAA.NDBC:LMDF1:1,2016-05-11T11:00:00Z,25.1760,-80.6330,1.5,18.66,1111122 
ENP,ioos.station.NOAA.NDBC:LMDF1:1,2016-05-11T12:00:00Z,25.1760,-80.6330,1.5,21.41,1111122 
ENP,ioos.station.NOAA.NDBC:LMDF1:1,2016-05-11T13:00:00Z,25.1760,-80.6330,1.5,21.92,1111122 
ENP,ioos.station.NOAA.NDBC:LMDF1:1,2016-05-11T16:00:00Z,25.1760,-80.6330,1.5,21.38,1111122 
ENP,ioos.station.NOAA.NDBC:LMDF1:1,2016-05-11T17:00:00Z,25.1760,-80.6330,1.5,21.36,1111122 
ENP,ioos.station.NOAA.NDBC:LMDF1:1,2016-05-11T20:00:00Z,25.1760,-80.6330,1.5,21.12,1111122 
ENP,ioos.station.NOAA.NDBC:LMDF1:1,2016-05-11T21:00:00Z,25.1760,-80.6330,1.5,21.44,1111122 
ENP,ioos.station.NOAA.NDBC:LMDF1:1,2016-05-11T22:00:00Z,25.1760,-80.6330,1.5,21.39,1111122 
ENP,ioos.station.NOAA.NDBC:LMDF1:1,2016-05-11T23:00:00Z,25.1760,-80.6330,1.5,21.99,1111122 
ENP,ioos.station.NOAA.NDBC:LMDF1:1,2016-05-12T00:00:00Z,25.1760,-80.6330,1.5,20.11,1111122 
ENP,ioos.station.NOAA.NDBC:LMDF1:1,2016-05-12T01:00:00Z,25.1760,-80.6330,1.5,22.16,1111122 
ENP,ioos.station.NOAA.NDBC:LMDF1:1,2016-05-12T04:00:00Z,25.1760,-80.6330,1.5,22.53,1111122 
ENP,ioos.station.NOAA.NDBC:LMDF1:1,2016-05-12T07:00:00Z,25.1760,-80.6330,1.5,21.54,1111122 
ENP,ioos.station.NOAA.NDBC:LMDF1:1,2016-05-12T08:00:00Z,25.1760,-80.6330,1.5,21.79,1111122 
ENP,ioos.station.NOAA.NDBC:LMDF1:1,2016-05-12T09:00:00Z,25.1760,-80.6330,1.5,21.77,1111122 
ENP,ioos.station.NOAA.NDBC:LMDF1:1,2016-05-12T11:00:00Z,25.1760,-80.6330,1.5,21.21,1111122 
ENP,ioos.station.NOAA.NDBC:LMDF1:1,2016-05-12T12:00:00Z,25.1760,-80.6330,1.5,21.08,1111122 
ENP,ioos.station.NOAA.NDBC:LMDF1:1,2016-05-12T13:00:00Z,25.1760,-80.6330,1.5,21.27,1111122 
ENP,ioos.station.NOAA.NDBC:LMDF1:1,2016-05-12T14:00:00Z,25.1760,-80.6330,1.5,21.85,1111122 
ENP,ioos.station.NOAA.NDBC:LMDF1:1,2016-05-12T15:00:00Z,25.1760,-80.6330,1.5,22.63,1111122 
ENP,ioos.station.NOAA.NDBC:LMDF1:1,2016-05-12T16:00:00Z,25.1760,-80.6330,1.5,21.54,1111122 
ENP,ioos.station.NOAA.NDBC:LMDF1:1,2016-05-12T17:00:00Z,25.1760,-80.6330,1.5,22.71,1111122 
ENP,ioos.station.NOAA.NDBC:LMDF1:1,2016-05-12T18:00:00Z,25.1760,-80.6330,1.5,22.77,1111122 
ENP,ioos.station.NOAA.NDBC:LMDF1:1,2016-05-12T19:00:00Z,25.1760,-80.6330,1.5,22.63,1111122 
ENP,ioos.station.NOAA.NDBC:LMDF1:1,2016-05-12T21:00:00Z,25.1760,-80.6330,1.5,21.9,1111122 
ENP,ioos.station.NOAA.NDBC:LMDF1:1,2016-05-12T22:00:00Z,25.1760,-80.6330,1.5,22.62,1111122 
ENP,ioos.station.NOAA.NDBC:LMDF1:1,2016-05-12T23:00:00Z,25.1760,-80.6330,1.5,23.08,1111122 
ENP,ioos.station.NOAA.NDBC:LMDF1:1,2016-05-13T00:00:00Z,25.1760,-80.6330,1.5,23.07,1111122 
ENP,ioos.station.NOAA.NDBC:LMDF1:1,2016-05-13T01:00:00Z,25.1760,-80.6330,1.5,20.6,1111122 
ENP,ioos.station.NOAA.NDBC:LMDF1:1,2016-05-13T04:00:00Z,25.1760,-80.6330,1.5,23.1,1111122 
ENP,ioos.station.NOAA.NDBC:LMDF1:1,2016-05-13T07:00:00Z,25.1760,-80.6330,1.5,23.16,1111122 
ENP,ioos.station.NOAA.NDBC:LMDF1:1,2016-05-13T08:00:00Z,25.1760,-80.6330,1.5,23.25,1111122 
ENP,ioos.station.NOAA.NDBC:LMDF1:1,2016-05-13T09:00:00Z,25.1760,-80.6330,1.5,23.37,1111122 
ENP,ioos.station.NOAA.NDBC:LMDF1:1,2016-05-13T11:00:00Z,25.1760,-80.6330,1.5,23.49,1111122 
ENP,ioos.station.NOAA.NDBC:LMDF1:1,2016-05-13T12:00:00Z,25.1760,-80.6330,1.5,23.66,1111122 
ENP,ioos.station.NOAA.NDBC:LMDF1:1,2016-05-13T13:00:00Z,25.1760,-80.6330,1.5,23.7,1111122 
ENP,ioos.station.NOAA.NDBC:LMDF1:1,2016-05-13T14:00:00Z,25.1760,-80.6330,1.5,23.72,1111122 
ENP,ioos.station.NOAA.NDBC:LMDF1:1,2016-05-13T15:00:00Z,25.1760,-80.6330,1.5,23.75,1111122 
ENP,ioos.station.NOAA.NDBC:LMDF1:1,2016-05-13T16:00:00Z,25.1760,-80.6330,1.5,23.78,1111122 
ENP,ioos.station.NOAA.NDBC:LMDF1:1,2016-05-13T18:00:00Z,25.1760,-80.6330,1.5,23.34,1111122 
ENP,ioos.station.NOAA.NDBC:LMDF1:1,2016-05-13T19:00:00Z,25.1760,-80.6330,1.5,23.36,1111122 
ENP,ioos.station.NOAA.NDBC:LMDF1:1,2016-05-13T20:00:00Z,25.1760,-80.6330,1.5,23.38,1111122 
ENP,ioos.station.NOAA.NDBC:LMDF1:1,2016-05-13T21:00:00Z,25.1760,-80.6330,1.5,23.21,1111122 
ENP,ioos.station.NOAA.NDBC:LMDF1:1,2016-05-13T22:00:00Z,25.1760,-80.6330,1.5,22.93,1111122 
ENP,ioos.station.NOAA.NDBC:LMDF1:1,2016-05-13T23:00:00Z,25.1760,-80.6330,1.5,23.23,1111122 
ENP,ioos.station.NOAA.NDBC:LMDF1:1,2016-05-14T00:00:00Z,25.1760,-80.6330,1.5,23.2,1111122 
ENP,ioos.station.NOAA.NDBC:LMDF1:1,2016-05-14T01:00:00Z,25.1760,-80.6330,1.5,23.18,1111122 
ENP,ioos.station.NOAA.NDBC:LMDF1:1,2016-05-14T04:00:00Z,25.1760,-80.6330,1.5,23.12,1111122 
ENP,ioos.station.NOAA.NDBC:LMDF1:1,2016-05-14T07:00:00Z,25.1760,-80.6330,1.5,23.14,1111122 
ENP,ioos.station.NOAA.NDBC:LMDF1:1,2016-05-14T08:00:00Z,25.1760,-80.6330,1.5,23.16,1111122 
ENP,ioos.station.NOAA.NDBC:LMDF1:1,2016-05-14T09:00:00Z,25.1760,-80.6330,1.5,23.18,1111122 